Regional Weather Roundup
Issued by NWS Jackson, KY

Home | Current Version | Previous Version | Text Only | Print | Product List | Glossary Off
Versions: 1 2 3 4 5 6 7 8 9 10 11 12 13 14 15 16 17 18 19 20 21 22 23 24 25 26 27 28 29 30 31 32 33 34 35 36 37 38 39 40 41 42 43 44 45 46 47 48 49 50

000
ASUS43 KJKL 281105
RWRJKL

EAST KENTUCKY HOURLY WEATHER ROUNDUP
NATIONAL WEATHER SERVICE JACKSON KY
700 AM EDT THU AUG 28 2014

NOTE: "FAIR" INDICATES FEW OR NO CLOUDS BELOW 12,000 FEET WITH
NO SIGNIFICANT WEATHER AND/OR OBSTRUCTIONS TO VISIBILITY.

* THESE REPORTS ARE NOT UNDER NWS QUALITY CONTROL AND MAY NOT
  REPORT WEATHER SUCH AS PRECIPITATION AND FOG.

KYZ079-080-083-085-087-088-110-112-115-119-120-281200
...EASTERN KENTUCKY...

CITY           SKY/WX    TMP DP  RH WIND       PRES   REMARKS
JACKSON        PTCLDY    70  68  93 NW3       30.08R FOG
LONDON         CLEAR     68  65  90 CALM      30.08R FOG
SOMERSET*      FOG       68  68 100 CALM      30.08R VSB 1/4
MONTICELLO*    FOG       69  69 100 CALM      30.08S VSB<1/4
WILLIAMSBURG*  CLEAR     64  64 100 CALM      30.08R
MIDDLESBORO*   CLOUDY    64  64 100 CALM      30.09S FOG
HARLAN APT*    CLOUDY    64  63  94 MISG      30.10R VSB<1/4
BLACK MTN*       N/A     64  64 100 NE2         N/A
PIKEVILLE APT* FOG       66  66 100 CALM      30.09R VSB 1/4
BIG SANDY*     FOG       68  68  99 CALM      30.07R VSB 1/4
MOREHEAD APT*  FOG       68  66  94 CALM      30.09R VSB 1/4
$$

KYZ035-036-041-042-044-050-067-078-099-281200
...CENTRAL KENTUCKY...

CITY           SKY/WX    TMP DP  RH WIND       PRES   REMARKS
MT STERLING*   CLEAR     66  66 100 CALM      30.08S
FLEMING/MASON*   N/A     69  68  99 NE6       30.09R FOG
DANVILLE*      CLEAR     66  66 100 CALM      30.07S
RICHMOND*      CLEAR     66  64  94 CALM      30.06S
LEXINGTON      CLEAR     71  68  90 NE3       30.07R FOG
FRANKFORT      PTCLDY    69  68  96 CALM      30.06R FOG
$$

KYZ091>093-OHZ055-061-077-WVZ005-015-034-035-042-281200
...SOUTHERN OHIO/WEST VIRGINIA...

CITY           SKY/WX    TMP DP  RH WIND       PRES   REMARKS
COVINGTON      PTCLDY    71  66  84 NE6       30.08R
COLUMBUS       PTCLDY    64  60  87 N6        30.11R
DAYTON         PTCLDY    64  61  90 NE5       30.13R
WILMINGTON     CLEAR     63  60  90 NE7       30.11R
HUNTINGTON     CLOUDY    70  69  97 NE5       30.06R
CHARLESTON     CLOUDY    69  69 100 CALM      30.05R FOG
PINEVILLE*     CLOUDY    69  69 100 MISG      30.14R FOG
BECKLEY        CLOUDY    68  65  90 N3        30.13R
BLUEFIELD      CLOUDY    67  64  90 SW5       30.15R FOG
$$

VAZ002-007-008-TNZ017-027-036-066-071-281200
...SOUTHWEST VIRGINIA/EAST TENNESSEE...

CITY           SKY/WX    TMP DP  RH WIND       PRES   REMARKS
WISE*          CLEAR     64  63  94 S3        30.15R
JONESVILLE*      N/A     61  61 100 CALM      30.10S
ABINGDON*      MOCLDY    64  63  96 E5        30.12R
BRISTOL        CLOUDY    62  59  90 CALM      30.10R
KNOXVILLE      PTCLDY    65  63  93 CALM      30.06R
OAK RIDGE      CLEAR     66  64  93 CALM      30.08R
CROSSVILLE     CLEAR     68  62  81 CALM      30.11S HAZE
NASHVILLE      PTCLDY    71  69  93 CALM      30.05R
$$

...KEY TO REMARKS...
VSB - VISIBILITY IN MILES
WCI - WIND CHILL INDEX
HX  - HEAT INDEX

$$


USA.gov is the U.S. government's official web portal to all federal, state and local government web resources and services.